Location: Joplin
(37.0842°N, 94.5131°W)
Time: 06:12:28
(UTC-05:00)

Gurwin Techsat 1B - Visible Passes

Search period start: 20 May 2019 00:00
Search period end: 30 May 2019 00:00
Orbit: 811 x 814 km, 98.7° (Epoch: 19 May)

Date Brightness Start Highest point End Pass type
(mag) Time Alt. Az. Time Alt. Az. Time Alt. Az.
20 May 8.5 03:04:33 10° NNE 03:09:53 78° ESE 03:10:10 75° SE visible
20 May 10.6 04:46:52 10° NW 04:49:06 13° WNW 04:51:20 10° W visible
21 May 9.2 02:41:53 10° NNE 02:47:00 46° E 02:47:05 46° ESE visible
21 May 10.1 04:22:43 10° NNW 04:26:33 21° WNW 04:28:17 18° W visible
22 May 10.0 02:19:31 10° NE 02:24:00 28° E 02:24:00 28° E visible
22 May 9.5 03:59:14 10° N 04:03:55 33° WNW 04:05:12 29° W visible
23 May 10.7 01:57:39 10° NE 02:00:54 17° E 02:00:54 17° E visible
23 May 8.8 03:36:03 10° N 03:41:13 53° WNW 03:42:07 47° WSW visible
24 May 8.4 03:13:05 10° NNE 03:18:26 88° WNW 03:19:02 72° SSW visible
24 May 10.8 04:56:39 10° NW 04:57:31 10° WNW 04:58:24 10° WNW visible
25 May 8.9 02:50:21 10° NNE 02:55:34 56° E 02:55:56 55° ESE visible
25 May 10.4 04:31:38 10° NNW 04:35:01 17° WNW 04:37:09 14° W visible
26 May 9.7 02:27:50 10° NNE 02:32:38 34° E 02:32:51 34° ESE visible
26 May 9.8 04:07:59 10° N 04:12:24 27° WNW 04:14:03 23° W visible
27 May 10.4 02:05:44 10° NE 02:09:38 20° E 02:09:45 20° E visible
27 May 9.1 03:44:42 10° N 03:49:44 44° WNW 03:50:58 38° WSW visible
28 May 11.0 01:44:39 10° ENE 01:46:33 12° E 01:46:39 12° E visible
28 May 8.5 03:21:40 10° N 03:26:58 73° WNW 03:27:52 60° SW visible
29 May 8.6 02:58:50 10° NNE 03:04:08 68° ESE 03:04:46 62° SE visible
29 May 10.6 04:40:40 10° NNW 04:43:27 14° WNW 04:45:58 11° W visible
